AJI9797 KOMA-KADS

Flight info

Callsign AJI9797
Flight time N/A
Altitude 35000
Route HITUG SLANT3
Aircraft B738/M-SDE2E3FGHIRWXY/LB1

Departure

Time N/A
Airport Eppley Airfield (KOMA)

Arrival

Time 2026-05-07 23:35
Airport Addison Airport (KADS)
Time Latitude Longitude Altitude Speed Heading
2026-05-07 22:56 35.81862 -95.47221 35068 ft 440 kts 185°
2026-05-07 22:57 35.78841 -95.46580 35060 ft 440 kts 185°
2026-05-07 22:57 35.72813 -95.45344 35056 ft 439 kts 185°
2026-05-07 22:58 35.66784 -95.44163 35055 ft 438 kts 186°
2026-05-07 22:58 35.60771 -95.43006 35026 ft 437 kts 186°
2026-05-07 22:59 35.54799 -95.41860 35050 ft 436 kts 186°
2026-05-07 22:59 35.48791 -95.40711 35055 ft 436 kts 186°
2026-05-07 23:00 35.42779 -95.39561 35048 ft 437 kts 186°
2026-05-07 23:00 35.36806 -95.38419 35023 ft 437 kts 186°
2026-05-07 23:01 35.30792 -95.37269 35038 ft 437 kts 186°
2026-05-07 23:01 35.24783 -95.36124 35046 ft 437 kts 186°
2026-05-07 23:02 35.18767 -95.34979 35041 ft 437 kts 186°
2026-05-07 23:02 35.12753 -95.33835 34976 ft 437 kts 186°
2026-05-07 23:03 35.06752 -95.32694 35044 ft 436 kts 186°
2026-05-07 23:03 35.00745 -95.31555 35028 ft 438 kts 186°
2026-05-07 23:04 34.94736 -95.30534 35034 ft 433 kts 188°
2026-05-07 23:04 34.88763 -95.29756 35029 ft 431 kts 189°
2026-05-07 23:05 34.82798 -95.28986 35032 ft 430 kts 188°
2026-05-07 23:05 34.76884 -95.28195 35020 ft 430 kts 188°
2026-05-07 23:06 34.70934 -95.27384 35018 ft 430 kts 188°
2026-05-07 23:06 34.64993 -95.26574 35029 ft 430 kts 188°
2026-05-07 23:07 34.59048 -95.25765 35015 ft 429 kts 188°
2026-05-07 23:07 34.53125 -95.24959 35029 ft 428 kts 188°
2026-05-07 23:08 34.47199 -95.24156 35026 ft 428 kts 188°
2026-05-07 23:08 34.41274 -95.23354 35029 ft 428 kts 188°
2026-05-07 23:09 34.36356 -95.22689 34995 ft 428 kts 188°
2026-05-07 23:09 34.32460 -95.22338 35005 ft 410 kts 199°
2026-05-07 23:09 34.29769 -95.23014 35046 ft 386 kts 211°
2026-05-07 23:09 34.27343 -95.24286 35048 ft 375 kts 220°
2026-05-07 23:10 34.25910 -95.25429 35024 ft 369 kts 226°
2026-05-07 23:10 34.21919 -95.29376 35043 ft 372 kts 227°
2026-05-07 23:11 34.17921 -95.33362 35036 ft 373 kts 227°
2026-05-07 23:11 34.13900 -95.37325 35039 ft 373 kts 227°
2026-05-07 23:12 34.09872 -95.41272 35042 ft 373 kts 227°
2026-05-07 23:12 34.05853 -95.45204 35032 ft 372 kts 226°
2026-05-07 23:13 34.01870 -95.49091 35035 ft 362 kts 226°
2026-05-07 23:13 33.99922 -95.50990 34599 ft 361 kts 226°
2026-05-07 23:13 33.97973 -95.52880 34044 ft 358 kts 226°
2026-05-07 23:13 33.96017 -95.54752 33326 ft 359 kts 226°
2026-05-07 23:14 33.94080 -95.56601 32620 ft 360 kts 226°
2026-05-07 23:14 33.92114 -95.58476 31932 ft 361 kts 226°
2026-05-07 23:14 33.90140 -95.60361 31224 ft 362 kts 226°
2026-05-07 23:14 33.88150 -95.62272 30290 ft 369 kts 227°
2026-05-07 23:15 33.86128 -95.64220 29274 ft 376 kts 226°
2026-05-07 23:15 33.84083 -95.66185 28669 ft 375 kts 226°
2026-05-07 23:15 33.82037 -95.68142 28027 ft 376 kts 226°
2026-05-07 23:15 33.79967 -95.70058 27402 ft 374 kts 226°
2026-05-07 23:16 33.77952 -95.71991 26894 ft 369 kts 226°
2026-05-07 23:16 33.75959 -95.73921 26351 ft 366 kts 226°
2026-05-07 23:16 33.73981 -95.75837 25818 ft 364 kts 226°
2026-05-07 23:16 33.72031 -95.77718 25265 ft 364 kts 226°
2026-05-07 23:17 33.70032 -95.79646 24718 ft 375 kts 226°
2026-05-07 23:17 33.67949 -95.81657 24137 ft 390 kts 226°
2026-05-07 23:17 33.65821 -95.83695 23518 ft 391 kts 225°
2026-05-07 23:17 33.63693 -95.85724 22853 ft 389 kts 225°
2026-05-07 23:18 33.61586 -95.87727 22270 ft 385 kts 225°
2026-05-07 23:18 33.59498 -95.89713 21687 ft 381 kts 225°
2026-05-07 23:18 33.57430 -95.91682 21131 ft 377 kts 225°
2026-05-07 23:18 33.55384 -95.93631 20574 ft 374 kts 224°
2026-05-07 23:19 33.53348 -95.95572 20011 ft 371 kts 224°
2026-05-07 23:19 33.51361 -95.97465 19489 ft 368 kts 224°
2026-05-07 23:19 33.49361 -95.99368 18941 ft 366 kts 223°
2026-05-07 23:19 33.47371 -96.01259 18394 ft 364 kts 223°
2026-05-07 23:20 33.45391 -96.03141 17776 ft 362 kts 223°
2026-05-07 23:20 33.43423 -96.05014 17179 ft 360 kts 223°
2026-05-07 23:20 33.41467 -96.06875 16628 ft 358 kts 223°
2026-05-07 23:20 33.39526 -96.08721 16078 ft 356 kts 223°
2026-05-07 23:21 33.37587 -96.10566 15499 ft 355 kts 223°
2026-05-07 23:21 33.35653 -96.12401 14962 ft 353 kts 223°
2026-05-07 23:21 33.33760 -96.14250 14437 ft 349 kts 228°
2026-05-07 23:21 33.32306 -96.16507 13900 ft 340 kts 244°
2026-05-07 23:22 33.31337 -96.19065 13367 ft 336 kts 249°
2026-05-07 23:22 33.30452 -96.21642 12809 ft 334 kts 250°
2026-05-07 23:22 33.29571 -96.24210 12271 ft 333 kts 249°
2026-05-07 23:22 33.28693 -96.26721 11767 ft 331 kts 249°
2026-05-07 23:23 33.27806 -96.29222 11528 ft 321 kts 249°
2026-05-07 23:23 33.26951 -96.31619 11457 ft 307 kts 249°
2026-05-07 23:23 33.26052 -96.33885 11301 ft 299 kts 240°
2026-05-07 23:23 33.24824 -96.35846 11203 ft 289 kts 234°
2026-05-07 23:24 33.23583 -96.37683 11117 ft 279 kts 234°
2026-05-07 23:24 33.22395 -96.39459 11023 ft 269 kts 235°
2026-05-07 23:24 33.21252 -96.41193 10915 ft 261 kts 235°
2026-05-07 23:24 33.20148 -96.42882 10712 ft 256 kts 235°
2026-05-07 23:25 33.19102 -96.44594 10413 ft 254 kts 245°
2026-05-07 23:25 33.18719 -96.46617 10138 ft 250 kts 264°
2026-05-07 23:25 33.18557 -96.48686 9760 ft 252 kts 264°
2026-05-07 23:25 33.18382 -96.50778 9443 ft 252 kts 264°
2026-05-07 23:26 33.18202 -96.52851 9192 ft 249 kts 264°
2026-05-07 23:26 33.18024 -96.54867 9140 ft 239 kts 263°
2026-05-07 23:26 33.17851 -96.56799 9045 ft 228 kts 263°
2026-05-07 23:26 33.17684 -96.58631 8860 ft 218 kts 263°
2026-05-07 23:27 33.17359 -96.62178 8110 ft 217 kts 264°
2026-05-07 23:27 33.17194 -96.63964 7743 ft 214 kts 264°
2026-05-07 23:27 33.17030 -96.65731 7258 ft 215 kts 264°
2026-05-07 23:28 33.16865 -96.67520 6743 ft 218 kts 264°
2026-05-07 23:28 33.16697 -96.69320 6326 ft 216 kts 264°
2026-05-07 23:28 33.16537 -96.71029 6219 ft 198 kts 264°
2026-05-07 23:28 33.16389 -96.72605 6016 ft 187 kts 265°
2026-05-07 23:29 33.16245 -96.74147 5584 ft 189 kts 265°
2026-05-07 23:29 33.16098 -96.75719 5147 ft 192 kts 265°
2026-05-07 23:29 33.15948 -96.77314 4735 ft 194 kts 265°
2026-05-07 23:29 33.15800 -96.78894 4456 ft 188 kts 265°
2026-05-07 23:30 33.15657 -96.80417 4236 ft 182 kts 265°
2026-05-07 23:30 33.15515 -96.81919 4059 ft 183 kts 264°
2026-05-07 23:30 33.15373 -96.83419 3967 ft 182 kts 264°
2026-05-07 23:30 33.15230 -96.84926 3895 ft 185 kts 263°
2026-05-07 23:31 33.15085 -96.86460 3820 ft 190 kts 263°
2026-05-07 23:31 33.14843 -96.88006 3710 ft 190 kts 244°
2026-05-07 23:31 33.14030 -96.89198 3644 ft 184 kts 218°
2026-05-07 23:31 33.12908 -96.89885 3554 ft 181 kts 192°
2026-05-07 23:32 33.11665 -96.89927 3470 ft 180 kts 164°
2026-05-07 23:32 33.10448 -96.89523 3276 ft 184 kts 163°
2026-05-07 23:32 33.09269 -96.89079 3063 ft 172 kts 160°
2026-05-07 23:32 33.08171 -96.88609 2830 ft 164 kts 158°
2026-05-07 23:33 33.07118 -96.88147 2621 ft 161 kts 159°
2026-05-07 23:33 33.06055 -96.87681 2420 ft 165 kts 159°
2026-05-07 23:33 33.04970 -96.87205 2195 ft 166 kts 159°
2026-05-07 23:33 33.03894 -96.86733 2004 ft 164 kts 159°
2026-05-07 23:34 33.02822 -96.86263 1791 ft 161 kts 159°
2026-05-07 23:34 33.01794 -96.85813 1553 ft 156 kts 158°
2026-05-07 23:34 33.00774 -96.85363 1357 ft 158 kts 160°
2026-05-07 23:34 32.99743 -96.84913 1120 ft 157 kts 160°
2026-05-07 23:35 32.98718 -96.84462 929 ft 158 kts 160°
2026-05-07 23:35 32.97708 -96.84006 697 ft 155 kts 162°
2026-05-07 23:35 32.96778 -96.83614 650 ft 103 kts 160°
2026-05-07 23:35 32.96460 -96.83475 648 ft 3 kts 159°
2026-05-07 23:36 32.96401 -96.83448 649 ft 15 kts 158°
2026-05-07 23:36 32.96281 -96.83394 650 ft 21 kts 160°
2026-05-07 23:36 32.96181 -96.83346 651 ft 9 kts 141°
2026-05-07 23:36 32.96173 -96.83276 651 ft 9 kts 71°
2026-05-07 23:37 32.96199 -96.83209 652 ft 9 kts 59°
2026-05-07 23:37 32.96213 -96.83178 652 ft 0 kts 69°